Location: Bathurst
(33.4193°S, 149.5775°E)
Time: 09:59:55
(UTC+10:00)

Vanguard 1 Rocket - Pass Details

Date: 23 June 2021
Orbit: 650 x 4226 km, 34.3° (Epoch: 02 August)

Event Time Altitude Azimuth Distance (km) Brightness Sun altitude
Rises 10:05:10 0° 277° (W) 8,097 12.0 26.5°
Reaches altitude 10° 10:11:20 10° 276° (W) 6,701 11.7 27.2°
Maximum altitude 10:31:08 87° 185° (S) 2,242 9.8 29.0°
Drops below altitude 10° 10:40:47 10° 94° (E) 3,560 10.7 29.8°
Sets 10:43:02 0° 93° (E) 4,243 11.0 30.0°
